Estación de Morza
Ultimos registro cada 15 minutos 96
| N° | Estación | Fecha / Hora | Temperatura | Humedad | Lluvia | Velocidad | Dirección | Radiación | Presion |
| 96 | Morza | 05-05-2026 23:45 | 10,7 | 91 | 0 | 0,4 | 228 | 0 | 1012,6 |
| 95 | Morza | 05-05-2026 23:30 | 10,9 | 91 | 0 | 0 | 228 | 0 | 1012,9 |
| 94 | Morza | 05-05-2026 23:15 | 11,1 | 91 | 0 | 0 | 228 | 0 | 1013,1 |
| 93 | Morza | 05-05-2026 23:00 | 11,2 | 91 | 0 | 0 | 231 | 0 | 1013,4 |
| 92 | Morza | 05-05-2026 22:45 | 11,4 | 90 | 0 | 0 | 231 | 0 | 1013,3 |
| 91 | Morza | 05-05-2026 22:30 | 11,7 | 90 | 0 | 0 | 231 | 0 | 1013,5 |
| 90 | Morza | 05-05-2026 22:15 | 11,8 | 89 | 0 | 0 | 231 | 0 | 1013,4 |
| 89 | Morza | 05-05-2026 22:00 | 12,1 | 89 | 0 | 0 | 221 | 0 | 1013,4 |
| 88 | Morza | 05-05-2026 21:45 | 12,3 | 88 | 0 | 0 | 125 | 0 | 1013,1 |
| 87 | Morza | 05-05-2026 21:30 | 12,5 | 88 | 0 | 0 | 260 | 0 | 1013,6 |
| 86 | Morza | 05-05-2026 21:15 | 12,6 | 87 | 0 | 0 | 260 | 0 | 1013,4 |
| 85 | Morza | 05-05-2026 21:00 | 12,9 | 86 | 0 | 0 | 213 | 0 | 1013,5 |
| 84 | Morza | 05-05-2026 20:45 | 13,4 | 84 | 0 | 0 | 82 | 0 | 1013,5 |
| 83 | Morza | 05-05-2026 20:30 | 13,8 | 83 | 0 | 0 | 82 | 0 | 1013,4 |
| 82 | Morza | 05-05-2026 20:15 | 14,4 | 81 | 0 | 0 | 82 | 0 | 1013,1 |
| 81 | Morza | 05-05-2026 20:00 | 14,8 | 79 | 0 | 0 | 319 | 0 | 1013,5 |
| 80 | Morza | 05-05-2026 19:45 | 15 | 78 | 0 | 0,9 | 320 | 0 | 1013,4 |
| 79 | Morza | 05-05-2026 19:30 | 15 | 79 | 0 | 1,8 | 290 | 0 | 1013,7 |
| 78 | Morza | 05-05-2026 19:15 | 14,6 | 81 | 0 | 0,9 | 296 | 0 | 1013,3 |
| 77 | Morza | 05-05-2026 19:00 | 14,3 | 85 | 0 | 0 | 257 | 0 | 1012,8 |
| 76 | Morza | 05-05-2026 18:45 | 14,7 | 84 | 0 | 0,4 | 228 | 0 | 1012,7 |
| 75 | Morza | 05-05-2026 18:30 | 14,8 | 83 | 0 | 0,4 | 155 | 0 | 1012,4 |
| 74 | Morza | 05-05-2026 18:15 | 15,3 | 82 | 0 | 0,4 | 331 | 0 | 1012,4 |
| 73 | Morza | 05-05-2026 18:00 | 15,7 | 81 | 0 | 0 | 150 | 0 | 1012,2 |
| 72 | Morza | 05-05-2026 17:45 | 16 | 79 | 0 | 0 | 240 | 0 | 1012,1 |
| 71 | Morza | 05-05-2026 17:30 | 16,4 | 78 | 0 | 0 | 240 | 5 | 1012,1 |
| 70 | Morza | 05-05-2026 17:15 | 16,8 | 78 | 0 | 0 | 248 | 16 | 1011,7 |
| 69 | Morza | 05-05-2026 17:00 | 17,2 | 76 | 0 | 0 | 270 | 25 | 1011,8 |
| 68 | Morza | 05-05-2026 16:45 | 17,5 | 74 | 0 | 0 | 270 | 35 | 1011,5 |
| 67 | Morza | 05-05-2026 16:30 | 17,8 | 71 | 0 | 0 | 270 | 30 | 1011,4 |
| 66 | Morza | 05-05-2026 16:15 | 17,9 | 70 | 0 | 0 | 270 | 44 | 1011,3 |
| 65 | Morza | 05-05-2026 16:00 | 17,9 | 68 | 0 | 0 | 270 | 62 | 1011,1 |
| 64 | Morza | 05-05-2026 15:45 | 17,9 | 69 | 0 | 0 | 285 | 58 | 1011,2 |
| 63 | Morza | 05-05-2026 15:30 | 18,2 | 68 | 0 | 0,4 | 317 | 90 | 1010,9 |
| 62 | Morza | 05-05-2026 15:15 | 18,1 | 69 | 0 | 0 | 239 | 130 | 1010,8 |
| 61 | Morza | 05-05-2026 15:00 | 18,1 | 68 | 0 | 0,9 | 298 | 137 | 1010,8 |
| 60 | Morza | 05-05-2026 14:45 | 18,1 | 70 | 0 | 0 | 272 | 125 | 1010,9 |
| 59 | Morza | 05-05-2026 14:30 | 18,1 | 71 | 0 | 0,4 | 57 | 105 | 1010,7 |
| 58 | Morza | 05-05-2026 14:15 | 18,1 | 73 | 0 | 0,4 | 28 | 172 | 1010,7 |
| 57 | Morza | 05-05-2026 14:00 | 17,9 | 72 | 0 | 0 | 343 | 151 | 1010,9 |
| 56 | Morza | 05-05-2026 13:45 | 17,7 | 71 | 0 | 0 | 33 | 160 | 1010,6 |
| 55 | Morza | 05-05-2026 13:30 | 17,7 | 69 | 0 | 0 | 15 | 118 | 1010,8 |
| 54 | Morza | 05-05-2026 13:15 | 17,7 | 68 | 0 | 0,4 | 76 | 160 | 1010,8 |
| 53 | Morza | 05-05-2026 13:00 | 17,4 | 70 | 0 | 0,4 | 346 | 186 | 1011 |
| 52 | Morza | 05-05-2026 12:45 | 17,2 | 72 | 0 | 0 | 336 | 200 | 1010,9 |
| 51 | Morza | 05-05-2026 12:30 | 17 | 71 | 0 | 0,9 | 324 | 179 | 1010,7 |
| 50 | Morza | 05-05-2026 12:15 | 16,9 | 71 | 0 | 0,4 | 310 | 163 | 1010,7 |
| 49 | Morza | 05-05-2026 12:00 | 16,9 | 73 | 0 | 0,9 | 303 | 169 | 1010,9 |
| 48 | Morza | 05-05-2026 11:45 | 16,8 | 74 | 0 | 0,9 | 328 | 211 | 1011 |
| 47 | Morza | 05-05-2026 11:30 | 16,7 | 73 | 0 | 0,4 | 18 | 163 | 1011,2 |
| 46 | Morza | 05-05-2026 11:15 | 16,3 | 71 | 0 | 0,9 | 7 | 257 | 1011,4 |
| 45 | Morza | 05-05-2026 11:00 | 15,8 | 74 | 0 | 0,4 | 4 | 155 | 1011,6 |
| 44 | Morza | 05-05-2026 10:45 | 15,3 | 76 | 0 | 0 | 74 | 149 | 1011,4 |
| 43 | Morza | 05-05-2026 10:30 | 15,1 | 76 | 0 | 0,9 | 47 | 128 | 1011,6 |
| 42 | Morza | 05-05-2026 10:15 | 14,9 | 76 | 0 | 0 | 78 | 123 | 1011,9 |
| 41 | Morza | 05-05-2026 10:00 | 14,5 | 78 | 0 | 0 | 136 | 121 | 1012,1 |
| 40 | Morza | 05-05-2026 09:45 | 14,1 | 79 | 0 | 0 | 282 | 74 | 1012,2 |
| 39 | Morza | 05-05-2026 09:30 | 13,6 | 81 | 0 | 0 | 297 | 95 | 1011,8 |
| 38 | Morza | 05-05-2026 09:15 | 12,8 | 82 | 0 | 0 | 209 | 63 | 1011 |
| 37 | Morza | 05-05-2026 09:00 | 12,4 | 85 | 0 | 0 | 186 | 62 | 1010,4 |
| 36 | Morza | 05-05-2026 08:45 | 11,9 | 85 | 0 | 0 | 165 | 60 | 1010,2 |
| 35 | Morza | 05-05-2026 08:30 | 11,5 | 85 | 0 | 0,4 | 154 | 46 | 1010,8 |
| 34 | Morza | 05-05-2026 08:15 | 11,1 | 86 | 0 | 0,4 | 280 | 25 | 1010,7 |
| 33 | Morza | 05-05-2026 08:00 | 10,6 | 89 | 0 | 0,9 | 260 | 21 | 1011 |
| 32 | Morza | 05-05-2026 07:45 | 10,2 | 90 | 0 | 0,4 | 121 | 12 | 1011,5 |
| 31 | Morza | 05-05-2026 07:30 | 10,2 | 89 | 0 | 0,9 | 110 | 0 | 1012,2 |
| 30 | Morza | 05-05-2026 07:15 | 10,2 | 89 | 0 | 0 | 213 | 0 | 1012,5 |
| 29 | Morza | 05-05-2026 07:00 | 9,9 | 90 | 0 | 0 | 152 | 0 | 1012,4 |
| 28 | Morza | 05-05-2026 06:45 | 9,8 | 90 | 0 | 0,4 | 140 | 0 | 1012,9 |
| 27 | Morza | 05-05-2026 06:30 | 9,7 | 90 | 0 | 0 | 324 | 0 | 1013,6 |
| 26 | Morza | 05-05-2026 06:15 | 9,5 | 91 | 0 | 0 | 153 | 0 | 1013,1 |
| 25 | Morza | 05-05-2026 06:00 | 9,4 | 90 | 0 | 0,9 | 278 | 0 | 1013,4 |
| 24 | Morza | 05-05-2026 05:45 | 9,3 | 91 | 0 | 0 | 26 | 0 | 1013,1 |
| 23 | Morza | 05-05-2026 05:30 | 9,2 | 91 | 0 | 0 | 67 | 0 | 1013,3 |
| 22 | Morza | 05-05-2026 05:15 | 9,3 | 90 | 0 | 0 | 107 | 0 | 1013,7 |
| 21 | Morza | 05-05-2026 05:00 | 9,3 | 90 | 0 | 0 | 100 | 0 | 1013,1 |
| 20 | Morza | 05-05-2026 04:45 | 9,2 | 91 | 0 | 0 | 100 | 0 | 1012,9 |
| 19 | Morza | 05-05-2026 04:30 | 9,1 | 90 | 0 | 0 | 100 | 0 | 1012,8 |
| 18 | Morza | 05-05-2026 04:15 | 9,1 | 91 | 0 | 0 | 100 | 0 | 1012,4 |
| 17 | Morza | 05-05-2026 04:00 | 9,1 | 91 | 0 | 0 | 100 | 0 | 1012,2 |
| 16 | Morza | 05-05-2026 03:45 | 9,2 | 90 | 0 | 0,4 | 100 | 0 | 1011,9 |
| 15 | Morza | 05-05-2026 03:30 | 9,2 | 89 | 0 | 0 | 127 | 0 | 1012,4 |
| 14 | Morza | 05-05-2026 03:15 | 9,2 | 89 | 0 | 0 | 150 | 0 | 1012,5 |
| 13 | Morza | 05-05-2026 03:00 | 9,2 | 89 | 0 | 0 | 150 | 0 | 1012,5 |
| 12 | Morza | 05-05-2026 02:45 | 8,9 | 89 | 0 | 0,4 | 150 | 0 | 1012,9 |
| 11 | Morza | 05-05-2026 02:30 | 8,8 | 90 | 0 | 0 | 105 | 0 | 1012,8 |
| 10 | Morza | 05-05-2026 02:15 | 8,6 | 91 | 0 | 0 | 61 | 0 | 1012,8 |
| 9 | Morza | 05-05-2026 02:00 | 8,4 | 91 | 0 | 0 | 61 | 0 | 1013 |
| 8 | Morza | 05-05-2026 01:45 | 8,3 | 90 | 0 | 0,4 | 60 | 0 | 1012,9 |
| 7 | Morza | 05-05-2026 01:30 | 8,2 | 90 | 0 | 0 | 204 | 0 | 1013,3 |
| 6 | Morza | 05-05-2026 01:15 | 7,9 | 90 | 0 | 0,4 | 204 | 0 | 1013,3 |
| 5 | Morza | 05-05-2026 01:00 | 7,9 | 90 | 0 | 0 | 204 | 0 | 1013,1 |
| 4 | Morza | 05-05-2026 00:45 | 8,1 | 88 | 0 | 0 | 204 | 0 | 1013,3 |
| 3 | Morza | 05-05-2026 00:30 | 8,4 | 88 | 0 | 0 | 204 | 0 | 1013,2 |
| 2 | Morza | 05-05-2026 00:15 | 8,7 | 88 | 0 | 0,4 | 204 | 0 | 1013,4 |
| 1 | Morza | 05-05-2026 00:00 | 8,9 | 88 | 0 | 0 | 204 | 0 | 1013,3 |